Flag for Norway Weather past 2 weeks in Sandnessjøen, Norway

Now
36 °F

Scattered clouds.


Feels Like: 27 °F
Forecast: 42 / 44 °F
Wind: 14 mph from South

Location: Sandnessjoen / Stokka

Current Time: Mar 5, 2015 at 9:58:46 AM

Latest Report: Mar 5, 2015 at 9:20 AM


Visibility: N/A

Pressure: 30.04 "Hg

Humidity: 70%

Dew point: 27 °F

Location of SandnessjøenLocation

Historic Weather in Sandnessjøen — Graph

°F

Sandnessjøen temperature yesterday

Maximum temperature yesterday: 36 °F (at 11:20 AM)
Minimum temperature yesterday: 32 °F (at 4:50 AM)
Average temperature yesterday: 34 °F

Past Weeks' High & Low Weather Summary

 TemperatureHumidityPressure
High48 °F (Mar 1, 1:20 PM)100% (Feb 18, 8:50 PM)30.04 "Hg (Feb 18, 8:50 PM)
Low32 °F (Mar 3, 6:20 PM)39% (Feb 27, 6:50 PM)28.77 "Hg (Mar 1, 5:50 PM)
Average40 °F71%29.29 "Hg
* Reported Feb 18 8:20 AM — Mar 5 8:20 AM, Sandnessjøen, Weather by CustomWeather, © 2015

Note: Actual official high and low records may vary slightly from our data, if they occured in-between our weather recording intervals... More about our weather records

Advertising

Sandnessjøen weather history for previous 24 hours

 ConditionsComfort  
Time TempWeatherWind HumidityBarometerVisibility
8:20 AM
Thu, Mar 5
36 °FScattered clouds.13 mph75%30.04 "HgN/A
7:50 AM36 °FScattered showers. Partly sunny.15 mph81%30.04 "HgN/A
6:50 AM36 °FScattered showers. Partly cloudy.18 mph87%30.04 "HgN/A
6:20 AM36 °FScattered showers. Partly cloudy.16 mph87%30.04 "HgN/A
5:50 AM36 °FScattered showers. Partly cloudy.10 mph87%30.04 "HgN/A
5:20 AM36 °FSprinkles. Partly cloudy.14 mph87%30.04 "HgN/A
4:50 AM36 °FSprinkles. Partly cloudy.10 mph87%30.04 "HgN/A
10:20 PM
Wed, Mar 4
32 °FPassing clouds.5 mph80%29.92 "HgN/A
9:50 PM32 °FPassing clouds.3 mph80%29.92 "HgN/A
9:20 PM34 °FPassing clouds.6 mph75%29.92 "HgN/A
8:50 PM34 °FPassing clouds.3 mph75%29.89 "HgN/A
8:20 PM34 °FPassing clouds.5 mph75%29.89 "HgN/A
7:50 PM34 °FPassing clouds.6 mph81%29.89 "HgN/A
7:20 PM36 °FPassing clouds.8 mph75%29.86 "HgN/A
6:50 PM34 °FPassing clouds.2 mph75%29.86 "HgN/A
6:20 PM34 °FPartly cloudy.6 mph75%29.86 "HgN/A
5:50 PM34 °FPartly cloudy.7 mph75%29.86 "HgN/A
5:20 PM36 °FBroken clouds.5 mph75%29.83 "HgN/A
4:59 PM36 °FBroken clouds.6 mph70%29.83 "HgN/A
4:20 PM34 °FChilly.5 mph75%29.83 "HgN/A
3:50 PM36 °FScattered clouds.7 mph70%29.80 "HgN/A
3:20 PM34 °FScattered clouds.5 mph70%29.80 "HgN/A
2:50 PM36 °FScattered clouds.3 mph65%29.80 "HgN/A
2:20 PM36 °FBroken clouds.3 mph65%29.77 "HgN/A
1:50 PM36 °FPartly sunny.7 mph65%29.77 "HgN/A
1:20 PM34 °FPartly sunny.6 mph65%29.77 "HgN/A
12:50 PM36 °FPartly sunny.6 mph65%29.74 "HgN/A
12:20 PM34 °FPartly sunny.7 mph70%29.74 "HgN/A
11:50 AM34 °FScattered clouds.7 mph70%29.74 "HgN/A
11:20 AM36 °FScattered clouds.5 mph60%29.71 "HgN/A
10:50 AM34 °FPassing clouds.7 mph65%29.71 "HgN/A
10:20 AM34 °FPassing clouds.3 mph65%29.71 "HgN/A
9:50 AM32 °FPassing clouds.10 mph64%29.68 "HgN/A
Weather by CustomWeather, © 2015

See weather overviewHow to use our weather pages